Time,TemperatureF,DewpointF,PressureIn,WindDirection,WindDirectionDegrees,WindSpeedMPH,WindSpeedGustMPH,Humidity,HourlyPrecipIn,Conditions,Clouds,dailyrainin,SoftwareType,DateUTC
2013-11-13 00:01:00,52.9,50.3,30.21,South,180,3.6,8.7,91,0.00,,,0.00,WUHU216HW,2013-11-13 08:01:00,
2013-11-13 00:06:00,52.9,50.3,30.21,South,180,3.4,8.7,91,0.00,,,0.00,WUHU216HW,2013-11-13 08:06:00,
2013-11-13 00:11:00,53.1,50.5,30.21,SSE,158,5.4,7.2,91,0.00,,,0.00,WUHU216HW,2013-11-13 08:11:00,
2013-11-13 00:16:00,53.3,50.7,30.21,SW,225,2.7,6.3,91,0.00,,,0.00,WUHU216HW,2013-11-13 08:16:00,
2013-11-13 00:21:00,53.3,50.7,30.21,SW,225,2.0,5.4,91,0.00,,,0.00,WUHU216HW,2013-11-13 08:21:00,
2013-11-13 00:26:00,53.3,50.7,30.21,South,180,5.4,7.4,91,0.00,,,0.00,WUHU216HW,2013-11-13 08:26:00,
2013-11-13 00:31:00,53.1,50.5,30.21,SSE,158,4.9,7.8,91,0.00,,,0.00,WUHU216HW,2013-11-13 08:31:00,
2013-11-13 00:36:00,53.1,50.5,30.21,South,180,3.4,7.8,91,0.00,,,0.00,WUHU216HW,2013-11-13 08:36:00,
2013-11-13 00:41:00,53.1,50.5,30.21,South,180,3.6,6.9,91,0.00,,,0.00,WUHU216HW,2013-11-13 08:41:00,
2013-11-13 00:46:00,52.9,50.3,30.21,South,180,2.5,5.8,91,0.00,,,0.00,WUHU216HW,2013-11-13 08:46:00,
2013-11-13 00:51:00,52.9,50.3,30.21,SSW,203,4.0,5.8,91,0.00,,,0.00,WUHU216HW,2013-11-13 08:51:00,
2013-11-13 00:56:00,52.9,50.3,30.21,WNW,293,2.7,5.6,91,0.00,,,0.00,WUHU216HW,2013-11-13 08:56:00,
2013-11-13 01:01:00,52.9,50.3,30.21,SSW,203,2.0,5.6,91,0.00,,,0.00,WUHU216HW,2013-11-13 09:01:00,
2013-11-13 01:06:00,52.9,50.3,30.21,South,180,2.7,5.4,91,0.00,,,0.00,WUHU216HW,2013-11-13 09:06:00,
2013-11-13 01:11:00,52.7,50.1,30.21,South,180,3.4,5.4,91,0.00,,,0.00,WUHU216HW,2013-11-13 09:11:00,
2013-11-13 01:16:00,52.7,50.1,30.22,West,270,2.5,3.6,91,0.00,,,0.00,WUHU216HW,2013-11-13 09:16:00,
2013-11-13 01:21:00,52.7,50.1,30.22,SE,135,4.0,6.3,91,0.00,,,0.00,WUHU216HW,2013-11-13 09:21:00,
2013-11-13 01:26:00,52.7,50.1,30.21,SSE,158,1.6,6.3,91,0.00,,,0.00,WUHU216HW,2013-11-13 09:26:00,
2013-11-13 01:31:00,52.7,50.1,30.21,South,180,4.9,6.5,91,0.00,,,0.00,WUHU216HW,2013-11-13 09:31:00,
2013-11-13 01:36:00,52.7,50.1,30.21,South,180,3.8,6.5,91,0.00,,,0.00,WUHU216HW,2013-11-13 09:36:00,
2013-11-13 01:41:00,52.7,50.1,30.21,SSE,158,2.5,5.4,91,0.00,,,0.00,WUHU216HW,2013-11-13 09:41:00,
2013-11-13 01:46:00,52.7,50.1,30.21,SSW,203,2.5,4.7,91,0.00,,,0.00,WUHU216HW,2013-11-13 09:46:00,
2013-11-13 01:51:00,52.7,50.1,30.21,SSW,203,3.4,4.3,91,0.00,,,0.00,WUHU216HW,2013-11-13 09:51:00,
2013-11-13 01:56:00,52.7,50.1,30.21,West,270,4.3,4.7,91,0.00,,,0.00,WUHU216HW,2013-11-13 09:56:00,
2013-11-13 02:01:00,52.7,50.1,30.21,South,180,5.4,5.4,91,0.00,,,0.00,WUHU216HW,2013-11-13 10:01:00,
2013-11-13 02:06:00,52.7,50.1,30.21,SSW,203,4.0,6.0,91,0.00,,,0.00,WUHU216HW,2013-11-13 10:06:00,
2013-11-13 02:11:00,52.6,50.0,30.21,SW,225,6.7,6.7,91,0.00,,,0.00,WUHU216HW,2013-11-13 10:11:00,
2013-11-13 02:16:00,52.6,50.0,30.21,South,180,4.7,6.7,91,0.00,,,0.00,WUHU216HW,2013-11-13 10:16:00,
2013-11-13 02:21:00,52.6,50.0,30.21,SW,225,3.4,6.7,91,0.00,,,0.00,WUHU216HW,2013-11-13 10:21:00,
2013-11-13 02:26:00,52.6,50.0,30.21,SSW,203,2.5,6.3,91,0.00,,,0.00,WUHU216HW,2013-11-13 10:26:00,
2013-11-13 02:31:00,52.6,50.0,30.21,SSW,203,4.0,6.3,91,0.00,,,0.00,WUHU216HW,2013-11-13 10:31:00,
2013-11-13 02:36:00,52.6,50.0,30.21,SSW,203,3.8,10.3,91,0.00,,,0.00,WUHU216HW,2013-11-13 10:36:00,
2013-11-13 02:41:00,52.7,50.1,30.21,SW,225,2.2,10.3,91,0.00,,,0.00,WUHU216HW,2013-11-13 10:41:00,
2013-11-13 02:46:00,52.7,50.1,30.21,SSW,203,2.5,5.4,91,0.00,,,0.00,WUHU216HW,2013-11-13 10:46:00,
2013-11-13 02:51:00,52.9,50.3,30.21,SSW,203,1.1,4.5,91,0.00,,,0.00,WUHU216HW,2013-11-13 10:51:00,
2013-11-13 02:56:00,52.9,50.3,30.21,SSW,203,2.5,5.4,91,0.00,,,0.00,WUHU216HW,2013-11-13 10:56:00,
2013-11-13 03:01:00,52.7,50.1,30.22,WSW,248,4.0,5.4,91,0.00,,,0.00,WUHU216HW,2013-11-13 11:01:00,
2013-11-13 03:06:00,52.7,50.1,30.22,ESE,113,3.6,5.6,91,0.00,,,0.00,WUHU216HW,2013-11-13 11:06:00,
2013-11-13 03:11:00,52.6,50.0,30.22,WSW,248,1.1,5.6,91,0.00,,,0.00,WUHU216HW,2013-11-13 11:11:00,
2013-11-13 03:16:00,52.6,50.0,30.22,SSE,158,2.0,4.7,91,0.00,,,0.00,WUHU216HW,2013-11-13 11:16:00,
2013-11-13 03:21:00,52.6,50.0,30.23,WSW,248,0.9,4.7,91,0.00,,,0.00,WUHU216HW,2013-11-13 11:21:00,
2013-11-13 03:26:00,52.4,49.8,30.22,South,180,1.1,3.6,91,0.00,,,0.00,WUHU216HW,2013-11-13 11:26:00,
2013-11-13 03:31:00,52.4,49.8,30.23,SSE,158,3.1,3.1,91,0.00,,,0.00,WUHU216HW,2013-11-13 11:31:00,
2013-11-13 03:36:00,52.2,49.6,30.23,South,180,1.1,3.8,91,0.00,,,0.00,WUHU216HW,2013-11-13 11:36:00,
2013-11-13 03:41:00,52.2,49.6,30.23,South,180,1.3,3.8,91,0.00,,,0.00,WUHU216HW,2013-11-13 11:41:00,
2013-11-13 03:46:00,52.2,49.6,30.23,WSW,248,1.8,3.4,91,0.00,,,0.00,WUHU216HW,2013-11-13 11:46:00,
2013-11-13 03:51:00,52.2,49.6,30.23,SW,225,2.2,4.7,91,0.00,,,0.00,WUHU216HW,2013-11-13 11:51:00,
2013-11-13 03:56:00,52.2,49.6,30.23,South,180,0.9,4.7,91,0.00,,,0.00,WUHU216HW,2013-11-13 11:56:00,
2013-11-13 04:01:00,52.2,49.6,30.23,SSW,203,1.8,4.9,91,0.00,,,0.00,WUHU216HW,2013-11-13 12:01:00,
2013-11-13 04:06:00,52.2,49.6,30.23,WSW,248,1.3,4.9,91,0.00,,,0.00,WUHU216HW,2013-11-13 12:06:00,
2013-11-13 04:11:00,52.0,49.4,30.23,SSE,158,1.8,3.6,91,0.00,,,0.00,WUHU216HW,2013-11-13 12:11:00,
2013-11-13 04:16:00,52.0,49.4,30.23,WSW,248,0.9,3.6,91,0.00,,,0.00,WUHU216HW,2013-11-13 12:16:00,
2013-11-13 04:21:00,52.0,49.4,30.23,South,180,1.1,2.2,91,0.00,,,0.00,WUHU216HW,2013-11-13 12:21:00,
2013-11-13 04:26:00,51.8,49.2,30.23,SW,225,0.4,2.5,91,0.00,,,0.00,WUHU216HW,2013-11-13 12:26:00,
2013-11-13 04:31:00,51.8,49.2,30.24,SSW,203,0.4,4.0,91,0.00,,,0.00,WUHU216HW,2013-11-13 12:31:00,
2013-11-13 04:36:00,51.8,49.2,30.23,South,180,0.7,4.0,91,0.00,,,0.00,WUHU216HW,2013-11-13 12:36:00,
2013-11-13 04:41:00,52.0,49.7,30.23,SSW,203,2.0,4.7,92,0.00,,,0.00,WUHU216HW,2013-11-13 12:41:00,
2013-11-13 04:46:00,52.0,49.7,30.23,South,180,1.1,4.7,92,0.00,,,0.00,WUHU216HW,2013-11-13 12:46:00,
2013-11-13 04:51:00,52.0,49.7,30.23,SSW,203,1.1,3.6,92,0.00,,,0.00,WUHU216HW,2013-11-13 12:51:00,
2013-11-13 04:56:00,52.0,49.7,30.23,WSW,248,1.1,3.6,92,0.00,,,0.00,WUHU216HW,2013-11-13 12:56:00,
2013-11-13 05:01:00,52.0,49.7,30.23,SSW,203,1.3,1.8,92,0.00,,,0.00,WUHU216HW,2013-11-13 13:01:00,
2013-11-13 05:06:00,52.0,49.7,30.23,SE,135,0.4,2.2,92,0.00,,,0.00,WUHU216HW,2013-11-13 13:06:00,
2013-11-13 05:11:00,52.0,49.7,30.24,SSW,203,1.1,2.2,92,0.00,,,0.00,WUHU216HW,2013-11-13 13:11:00,
2013-11-13 05:16:00,52.0,49.7,30.24,WNW,293,1.1,2.5,92,0.00,,,0.00,WUHU216HW,2013-11-13 13:16:00,
2013-11-13 05:21:00,52.2,49.9,30.24,South,180,0.9,2.5,92,0.00,,,0.00,WUHU216HW,2013-11-13 13:21:00,
2013-11-13 05:26:00,52.2,49.9,30.24,WSW,248,1.1,3.1,92,0.00,,,0.00,WUHU216HW,2013-11-13 13:26:00,
2013-11-13 05:31:00,52.2,49.9,30.25,WSW,248,1.1,3.1,92,0.00,,,0.00,WUHU216HW,2013-11-13 13:31:00,
2013-11-13 05:36:00,52.2,49.9,30.24,South,180,2.2,3.4,92,0.00,,,0.00,WUHU216HW,2013-11-13 13:36:00,
2013-11-13 05:41:00,52.2,49.9,30.25,SSW,203,1.1,3.4,92,0.00,,,0.00,WUHU216HW,2013-11-13 13:41:00,
2013-11-13 05:46:00,52.2,49.9,30.25,South,180,1.3,3.6,92,0.00,,,0.00,WUHU216HW,2013-11-13 13:46:00,
2013-11-13 05:51:00,52.4,50.0,30.25,South,180,3.4,3.6,92,0.00,,,0.00,WUHU216HW,2013-11-13 13:51:00,
2013-11-13 05:56:00,52.2,49.9,30.25,SW,225,2.2,4.0,92,0.00,,,0.00,WUHU216HW,2013-11-13 13:56:00,
2013-11-13 06:01:00,52.2,49.9,30.26,SSW,203,0.0,4.0,92,0.00,,,0.00,WUHU216HW,2013-11-13 14:01:00,
2013-11-13 06:06:00,52.2,49.9,30.26,ENE,68,0.4,2.2,92,0.00,,,0.00,WUHU216HW,2013-11-13 14:06:00,
2013-11-13 06:11:00,52.2,49.9,30.26,NNW,338,1.1,1.8,92,0.00,,,0.00,WUHU216HW,2013-11-13 14:11:00,
2013-11-13 06:16:00,52.4,50.0,30.26,SW,225,0.7,1.8,92,0.00,,,0.00,WUHU216HW,2013-11-13 14:16:00,
2013-11-13 06:21:00,52.2,49.9,30.26,South,180,1.1,2.5,92,0.00,,,0.00,WUHU216HW,2013-11-13 14:21:00,
2013-11-13 06:26:00,52.4,50.0,30.26,SW,225,1.3,2.5,92,0.00,,,0.00,WUHU216HW,2013-11-13 14:26:00,
2013-11-13 06:31:00,52.4,50.0,30.25,SW,225,0.4,1.8,92,0.00,,,0.00,WUHU216HW,2013-11-13 14:31:00,
2013-11-13 06:36:00,52.4,50.0,30.26,SW,225,0.0,1.8,92,0.00,,,0.00,WUHU216HW,2013-11-13 14:36:00,
2013-11-13 06:41:00,52.4,50.0,30.26,SSW,203,0.0,0.4,92,0.00,,,0.00,WUHU216HW,2013-11-13 14:41:00,
2013-11-13 06:46:00,52.4,50.0,30.26,SSW,203,0.0,0.9,92,0.00,,,0.00,WUHU216HW,2013-11-13 14:46:00,
2013-11-13 06:51:00,52.4,50.0,30.26,SSW,203,0.0,1.1,92,0.00,,,0.00,WUHU216HW,2013-11-13 14:51:00,
2013-11-13 06:56:00,52.4,50.0,30.26,SSW,203,0.0,1.1,92,0.00,,,0.00,WUHU216HW,2013-11-13 14:56:00,
2013-11-13 07:01:00,52.4,50.0,30.25,SW,225,0.7,2.0,92,0.00,,,0.00,WUHU216HW,2013-11-13 15:01:00,
2013-11-13 07:06:00,52.4,50.0,30.26,West,270,0.7,2.0,92,0.00,,,0.00,WUHU216HW,2013-11-13 15:06:00,
2013-11-13 07:11:00,52.4,50.0,30.26,SW,225,0.0,1.1,92,0.00,,,0.00,WUHU216HW,2013-11-13 15:11:00,
2013-11-13 07:16:00,52.4,50.0,30.26,SSW,203,2.5,2.5,92,0.00,,,0.00,WUHU216HW,2013-11-13 15:16:00,
2013-11-13 07:21:00,52.4,50.0,30.26,SW,225,0.2,2.7,92,0.00,,,0.00,WUHU216HW,2013-11-13 15:21:00,
2013-11-13 07:26:00,52.4,50.0,30.27,SW,225,0.0,2.7,92,0.00,,,0.00,WUHU216HW,2013-11-13 15:26:00,
2013-11-13 07:31:00,52.4,50.0,30.27,SSW,203,1.1,2.5,92,0.00,,,0.00,WUHU216HW,2013-11-13 15:31:00,
2013-11-13 07:36:00,52.4,50.0,30.27,SW,225,0.0,1.8,92,0.00,,,0.00,WUHU216HW,2013-11-13 15:36:00,
2013-11-13 07:41:00,52.4,50.0,30.27,SW,225,1.1,2.2,92,0.00,,,0.00,WUHU216HW,2013-11-13 15:41:00,
2013-11-13 07:46:00,52.4,50.0,30.26,SSW,203,0.4,2.2,92,0.00,,,0.00,WUHU216HW,2013-11-13 15:46:00,
2013-11-13 07:51:00,52.4,50.0,30.27,SSE,158,1.8,1.8,92,0.00,,,0.00,WUHU216HW,2013-11-13 15:51:00,
2013-11-13 07:56:00,52.4,50.0,30.27,SSW,203,1.1,3.4,92,0.00,,,0.00,WUHU216HW,2013-11-13 15:56:00,
2013-11-13 08:01:00,52.6,50.2,30.27,SSW,203,3.1,3.4,92,0.00,,,0.00,WUHU216HW,2013-11-13 16:01:00,
2013-11-13 08:06:00,52.6,50.2,30.27,SW,225,1.1,3.1,92,0.00,,,0.00,WUHU216HW,2013-11-13 16:06:00,
2013-11-13 08:11:00,52.6,50.2,30.27,SW,225,0.4,3.1,92,0.00,,,0.00,WUHU216HW,2013-11-13 16:11:00,
2013-11-13 08:16:00,52.6,50.2,30.28,West,270,0.4,2.9,92,0.00,,,0.00,WUHU216HW,2013-11-13 16:16:00,
2013-11-13 08:21:00,52.6,50.2,30.28,SW,225,1.6,3.1,92,0.00,,,0.00,WUHU216HW,2013-11-13 16:21:00,
2013-11-13 08:26:00,52.7,50.1,30.28,SW,225,0.7,3.1,91,0.00,,,0.00,WUHU216HW,2013-11-13 16:26:00,
2013-11-13 08:31:00,52.7,50.1,30.27,South,180,0.7,2.7,91,0.00,,,0.00,WUHU216HW,2013-11-13 16:31:00,
2013-11-13 08:36:00,52.7,50.1,30.27,SSW,203,1.1,2.7,91,0.00,,,0.00,WUHU216HW,2013-11-13 16:36:00,
2013-11-13 08:41:00,52.7,50.1,30.27,SSE,158,1.3,2.5,91,0.00,,,0.00,WUHU216HW,2013-11-13 16:41:00,
2013-11-13 08:46:00,52.7,50.1,30.27,SSW,203,1.1,1.8,91,0.00,,,0.00,WUHU216HW,2013-11-13 16:46:00,
2013-11-13 08:51:00,52.9,50.3,30.27,South,180,2.5,2.5,91,0.00,,,0.00,WUHU216HW,2013-11-13 16:51:00,
2013-11-13 08:56:00,52.9,50.3,30.27,SSE,158,1.8,3.6,91,0.00,,,0.00,WUHU216HW,2013-11-13 16:56:00,
2013-11-13 09:01:00,52.9,50.3,30.27,South,180,1.3,3.6,91,0.00,,,0.00,WUHU216HW,2013-11-13 17:01:00,
2013-11-13 09:06:00,52.9,50.3,30.28,SE,135,0.7,4.0,91,0.00,,,0.00,WUHU216HW,2013-11-13 17:06:00,
2013-11-13 09:11:00,53.1,50.5,30.28,South,180,2.5,4.0,91,0.00,,,0.00,WUHU216HW,2013-11-13 17:11:00,
2013-11-13 09:16:00,53.1,50.5,30.28,South,180,1.6,3.6,91,0.00,,,0.00,WUHU216HW,2013-11-13 17:16:00,
2013-11-13 09:21:00,53.3,50.7,30.28,South,180,0.7,3.4,91,0.00,,,0.00,WUHU216HW,2013-11-13 17:21:00,
2013-11-13 09:26:00,53.3,50.7,30.28,South,180,1.1,3.4,91,0.00,,,0.00,WUHU216HW,2013-11-13 17:26:00,
2013-11-13 09:31:00,53.3,50.7,30.28,South,180,0.4,3.4,91,0.00,,,0.00,WUHU216HW,2013-11-13 17:31:00,
2013-11-13 09:36:00,53.3,50.4,30.28,South,180,0.7,3.4,90,0.00,,,0.00,WUHU216HW,2013-11-13 17:36:00,
2013-11-13 09:41:00,53.3,50.4,30.29,SSW,203,1.1,2.5,90,0.00,,,0.00,WUHU216HW,2013-11-13 17:41:00,
2013-11-13 09:46:00,53.3,50.4,30.29,South,180,1.8,1.8,90,0.00,,,0.00,WUHU216HW,2013-11-13 17:46:00,
2013-11-13 09:51:00,53.1,50.2,30.29,SSW,203,0.7,2.5,90,0.00,,,0.00,WUHU216HW,2013-11-13 17:51:00,
2013-11-13 09:56:00,53.3,50.4,30.29,South,180,0.4,2.5,90,0.00,,,0.00,WUHU216HW,2013-11-13 17:56:00,
2013-11-13 10:01:00,53.3,50.4,30.29,SSE,158,0.9,2.5,90,0.00,,,0.00,WUHU216HW,2013-11-13 18:01:00,
2013-11-13 10:06:00,53.3,50.4,30.28,South,180,1.8,2.7,90,0.00,,,0.00,WUHU216HW,2013-11-13 18:06:00,
2013-11-13 10:11:00,53.1,50.2,30.29,SSW,203,3.4,3.4,90,0.00,,,0.00,WUHU216HW,2013-11-13 18:11:00,
2013-11-13 10:16:00,53.3,50.4,30.29,South,180,0.7,3.4,90,0.00,,,0.00,WUHU216HW,2013-11-13 18:16:00,
2013-11-13 10:21:00,53.3,50.4,30.29,SW,225,0.9,3.4,90,0.00,,,0.00,WUHU216HW,2013-11-13 18:21:00,
2013-11-13 10:26:00,53.3,50.4,30.29,South,180,2.0,2.9,90,0.00,,,0.00,WUHU216HW,2013-11-13 18:26:00,
2013-11-13 10:31:00,53.3,50.1,30.29,South,180,1.1,2.5,89,0.00,,,0.00,WUHU216HW,2013-11-13 18:31:00,
2013-11-13 10:36:00,53.5,50.3,30.29,SSW,203,0.4,2.2,89,0.00,,,0.00,WUHU216HW,2013-11-13 18:36:00,
2013-11-13 10:41:00,53.5,50.3,30.29,SW,225,0.7,2.2,89,0.00,,,0.00,WUHU216HW,2013-11-13 18:41:00,
2013-11-13 10:46:00,53.5,50.3,30.29,SW,225,0.9,5.1,89,0.00,,,0.00,WUHU216HW,2013-11-13 18:46:00,
2013-11-13 10:51:00,53.5,50.3,30.29,SSW,203,2.5,5.1,89,0.00,,,0.00,WUHU216HW,2013-11-13 18:51:00,
2013-11-13 10:56:00,53.5,50.3,30.29,South,180,2.5,3.4,89,0.00,,,0.00,WUHU216HW,2013-11-13 18:56:00,
2013-11-13 11:01:00,53.5,50.3,30.29,South,180,1.1,2.7,89,0.00,,,0.00,WUHU216HW,2013-11-13 19:01:00,
2013-11-13 11:06:00,53.6,50.5,30.28,SSW,203,0.7,2.5,89,0.00,,,0.00,WUHU216HW,2013-11-13 19:06:00,
2013-11-13 11:11:00,53.6,50.5,30.28,SW,225,1.8,3.1,89,0.00,,,0.00,WUHU216HW,2013-11-13 19:11:00,
2013-11-13 11:16:00,53.6,50.5,30.28,SSW,203,1.1,3.1,89,0.00,,,0.00,WUHU216HW,2013-11-13 19:16:00,
2013-11-13 11:21:00,53.6,50.5,30.28,South,180,0.9,2.9,89,0.00,,,0.00,WUHU216HW,2013-11-13 19:21:00,
2013-11-13 11:26:00,53.8,50.7,30.28,South,180,2.5,3.6,89,0.00,,,0.00,WUHU216HW,2013-11-13 19:26:00,
2013-11-13 11:31:00,53.8,50.7,30.28,South,180,0.9,3.6,89,0.00,,,0.00,WUHU216HW,2013-11-13 19:31:00,
2013-11-13 11:36:00,53.8,50.3,30.28,SSW,203,2.5,3.4,88,0.00,,,0.00,WUHU216HW,2013-11-13 19:36:00,
2013-11-13 11:41:00,54.0,50.5,30.28,SSW,203,1.8,3.6,88,0.00,,,0.00,WUHU216HW,2013-11-13 19:41:00,
2013-11-13 11:46:00,54.0,50.5,30.28,South,180,3.4,3.6,88,0.00,,,0.00,WUHU216HW,2013-11-13 19:46:00,
2013-11-13 11:51:00,54.0,50.5,30.28,SSW,203,1.1,3.4,88,0.00,,,0.00,WUHU216HW,2013-11-13 19:51:00,
2013-11-13 11:56:00,54.0,50.5,30.28,SSW,203,1.6,4.0,88,0.00,,,0.00,WUHU216HW,2013-11-13 19:56:00,
2013-11-13 12:01:00,54.2,50.7,30.28,South,180,1.8,4.0,88,0.00,,,0.00,WUHU216HW,2013-11-13 20:01:00,
2013-11-13 12:06:00,54.2,50.7,30.28,South,180,2.7,3.1,88,0.00,,,0.00,WUHU216HW,2013-11-13 20:06:00,
2013-11-13 12:11:00,54.4,50.6,30.28,SSE,158,0.9,3.1,87,0.00,,,0.00,WUHU216HW,2013-11-13 20:11:00,
2013-11-13 12:16:00,54.4,50.6,30.28,South,180,2.0,3.4,87,0.00,,,0.00,WUHU216HW,2013-11-13 20:16:00,
2013-11-13 12:21:00,54.5,50.8,30.28,SSW,203,1.1,4.0,87,0.00,,,0.00,WUHU216HW,2013-11-13 20:21:00,
2013-11-13 12:26:00,54.5,50.8,30.28,South,180,0.7,4.0,87,0.00,,,0.00,WUHU216HW,2013-11-13 20:26:00,
2013-11-13 12:31:00,54.5,50.8,30.28,South,180,3.6,4.0,87,0.00,,,0.00,WUHU216HW,2013-11-13 20:31:00,
2013-11-13 12:36:00,54.7,50.6,30.28,South,180,2.2,4.0,86,0.00,,,0.00,WUHU216HW,2013-11-13 20:36:00,
2013-11-13 12:41:00,54.7,50.9,30.28,South,180,2.5,3.6,87,0.00,,,0.00,WUHU216HW,2013-11-13 20:41:00,
2013-11-13 12:46:00,54.9,50.8,30.28,WSW,248,1.3,4.0,86,0.00,,,0.00,WUHU216HW,2013-11-13 20:46:00,
2013-11-13 12:51:00,54.9,50.8,30.28,South,180,1.8,4.0,86,0.00,,,0.00,WUHU216HW,2013-11-13 20:51:00,
2013-11-13 12:56:00,55.1,51.0,30.27,South,180,2.0,3.6,86,0.00,,,0.00,WUHU216HW,2013-11-13 20:56:00,
2013-11-13 13:01:00,55.1,51.0,30.27,SSW,203,1.8,3.4,86,0.00,,,0.00,WUHU216HW,2013-11-13 21:01:00,
2013-11-13 13:06:00,55.3,51.1,30.27,SW,225,1.8,4.0,86,0.00,,,0.00,WUHU216HW,2013-11-13 21:06:00,
2013-11-13 13:11:00,55.3,51.1,30.27,SSE,158,2.0,4.0,86,0.00,,,0.00,WUHU216HW,2013-11-13 21:11:00,
2013-11-13 13:16:00,55.3,51.1,30.27,South,180,2.0,3.4,86,0.00,,,0.00,WUHU216HW,2013-11-13 21:16:00,
2013-11-13 13:21:00,55.4,51.3,30.27,SSW,203,2.7,2.7,86,0.00,,,0.00,WUHU216HW,2013-11-13 21:21:00,
2013-11-13 13:26:00,55.4,51.3,30.27,SSE,158,1.8,2.7,86,0.00,,,0.00,WUHU216HW,2013-11-13 21:26:00,
2013-11-13 13:31:00,55.6,51.1,30.27,South,180,4.3,4.3,85,0.00,,,0.00,WUHU216HW,2013-11-13 21:31:00,
2013-11-13 13:36:00,55.6,51.1,30.27,South,180,1.3,4.3,85,0.00,,,0.00,WUHU216HW,2013-11-13 21:36:00,
2013-11-13 13:41:00,55.8,51.3,30.26,South,180,1.8,4.7,85,0.00,,,0.00,WUHU216HW,2013-11-13 21:41:00,
2013-11-13 13:46:00,55.8,51.3,30.26,SSE,158,3.6,4.7,85,0.00,,,0.00,WUHU216HW,2013-11-13 21:46:00,
2013-11-13 13:51:00,55.8,51.3,30.26,South,180,1.1,3.6,85,0.00,,,0.00,WUHU216HW,2013-11-13 21:51:00,
2013-11-13 13:56:00,55.8,51.3,30.26,SSE,158,3.4,3.6,85,0.00,,,0.00,WUHU216HW,2013-11-13 21:56:00,
2013-11-13 14:01:00,55.8,51.3,30.26,South,180,0.9,3.4,85,0.00,,,0.00,WUHU216HW,2013-11-13 22:01:00,
2013-11-13 14:06:00,55.8,50.9,30.27,South,180,0.7,3.4,84,0.00,,,0.00,WUHU216HW,2013-11-13 22:06:00,
2013-11-13 14:11:00,55.8,50.9,30.27,South,180,2.2,4.0,84,0.00,,,0.00,WUHU216HW,2013-11-13 22:11:00,
2013-11-13 14:16:00,55.8,50.9,30.27,SSE,158,2.7,4.0,84,0.00,,,0.00,WUHU216HW,2013-11-13 22:16:00,
2013-11-13 14:21:00,55.8,50.9,30.27,South,180,0.4,2.7,84,0.00,,,0.00,WUHU216HW,2013-11-13 22:21:00,
2013-11-13 14:26:00,55.8,50.9,30.27,South,180,0.7,2.7,84,0.00,,,0.00,WUHU216HW,2013-11-13 22:26:00,
2013-11-13 14:31:00,55.8,50.9,30.27,South,180,1.3,2.5,84,0.00,,,0.00,WUHU216HW,2013-11-13 22:31:00,
2013-11-13 14:36:00,55.8,50.9,30.27,South,180,2.2,3.1,84,0.00,,,0.00,WUHU216HW,2013-11-13 22:36:00,
2013-11-13 14:41:00,55.8,50.9,30.26,WSW,248,1.1,3.1,84,0.00,,,0.00,WUHU216HW,2013-11-13 22:41:00,
2013-11-13 14:46:00,55.6,50.8,30.26,South,180,1.1,2.2,84,0.00,,,0.00,WUHU216HW,2013-11-13 22:46:00,
2013-11-13 14:51:00,55.6,50.8,30.26,South,180,0.9,2.0,84,0.00,,,0.00,WUHU216HW,2013-11-13 22:51:00,
2013-11-13 14:56:00,55.8,50.9,30.26,South,180,0.2,1.8,84,0.00,,,0.00,WUHU216HW,2013-11-13 22:56:00,
2013-11-13 15:01:00,55.8,50.9,30.26,South,180,1.8,1.8,84,0.00,,,0.00,WUHU216HW,2013-11-13 23:01:00,
2013-11-13 15:06:00,55.8,50.9,30.26,West,270,0.4,1.8,84,0.00,,,0.00,WUHU216HW,2013-11-13 23:06:00,
2013-11-13 15:11:00,55.8,50.9,30.26,South,180,2.0,2.0,84,0.00,,,0.00,WUHU216HW,2013-11-13 23:11:00,
2013-11-13 15:16:00,55.8,50.9,30.26,South,180,2.2,2.2,84,0.00,,,0.00,WUHU216HW,2013-11-13 23:16:00,
2013-11-13 15:21:00,55.6,50.8,30.26,South,180,1.1,2.5,84,0.00,,,0.00,WUHU216HW,2013-11-13 23:21:00,
2013-11-13 15:26:00,55.6,50.8,30.26,SW,225,1.1,2.5,84,0.00,,,0.00,WUHU216HW,2013-11-13 23:26:00,
2013-11-13 15:31:00,55.6,50.8,30.26,SW,225,1.1,1.1,84,0.00,,,0.00,WUHU216HW,2013-11-13 23:31:00,
2013-11-13 15:36:00,55.6,50.8,30.25,SW,225,0.2,1.1,84,0.00,,,0.00,WUHU216HW,2013-11-13 23:36:00,
2013-11-13 15:41:00,55.4,50.6,30.26,SW,225,0.0,1.1,84,0.00,,,0.00,WUHU216HW,2013-11-13 23:41:00,
2013-11-13 15:46:00,55.4,50.6,30.25,SW,225,0.0,0.7,84,0.00,,,0.00,WUHU216HW,2013-11-13 23:46:00,
2013-11-13 15:51:00,55.3,50.5,30.25,SW,225,0.0,0.4,84,0.00,,,0.00,WUHU216HW,2013-11-13 23:51:00,
2013-11-13 15:56:00,55.1,50.3,30.25,SW,225,0.0,0.7,84,0.00,,,0.00,WUHU216HW,2013-11-13 23:56:00,
2013-11-13 16:01:00,55.1,50.6,30.25,West,270,0.0,1.3,85,0.00,,,0.00,WUHU216HW,2013-11-14 00:01:00,
2013-11-13 16:06:00,54.9,50.4,30.25,West,270,0.0,1.3,85,0.00,,,0.00,WUHU216HW,2013-11-14 00:06:00,
2013-11-13 16:11:00,54.7,50.2,30.25,West,270,0.4,0.7,85,0.00,,,0.00,WUHU216HW,2013-11-14 00:11:00,
2013-11-13 16:16:00,54.7,50.2,30.25,SSE,158,0.4,1.1,85,0.00,,,0.00,WUHU216HW,2013-11-14 00:16:00,
2013-11-13 16:21:00,54.5,50.1,30.25,SW,225,0.0,1.8,85,0.00,,,0.00,WUHU216HW,2013-11-14 00:21:00,
2013-11-13 16:26:00,54.4,50.0,30.25,SW,225,0.9,1.8,85,0.00,,,0.00,WUHU216HW,2013-11-14 00:26:00,
2013-11-13 16:31:00,54.4,50.0,30.25,SSW,203,0.2,1.1,85,0.00,,,0.00,WUHU216HW,2013-11-14 00:31:00,
2013-11-13 16:36:00,54.2,49.8,30.25,SW,225,0.0,0.9,85,0.00,,,0.00,WUHU216HW,2013-11-14 00:36:00,
2013-11-13 16:41:00,54.2,49.8,30.25,West,270,0.0,0.9,85,0.00,,,0.00,WUHU216HW,2013-11-14 00:41:00,
2013-11-13 16:46:00,54.0,49.6,30.25,SW,225,1.8,1.8,85,0.00,,,0.00,WUHU216HW,2013-11-14 00:46:00,
2013-11-13 16:51:00,54.0,49.6,30.24,WNW,293,0.0,2.0,85,0.00,,,0.00,WUHU216HW,2013-11-14 00:51:00,
2013-11-13 16:56:00,54.0,49.6,30.25,WNW,293,0.0,2.0,85,0.00,,,0.00,WUHU216HW,2013-11-14 00:56:00,
2013-11-13 17:01:00,54.0,49.6,30.25,SSE,158,2.7,2.7,85,0.00,,,0.00,WUHU216HW,2013-11-14 01:01:00,
2013-11-13 17:06:00,54.0,49.6,30.25,SSE,158,1.1,2.7,85,0.00,,,0.00,WUHU216HW,2013-11-14 01:06:00,
2013-11-13 17:11:00,54.0,49.6,30.25,South,180,0.0,2.2,85,0.00,,,0.00,WUHU216HW,2013-11-14 01:11:00,
2013-11-13 17:16:00,54.0,49.6,30.25,SW,225,0.2,2.7,85,0.00,,,0.00,WUHU216HW,2013-11-14 01:16:00,
2013-11-13 17:21:00,54.0,49.6,30.24,WSW,248,0.2,3.4,85,0.00,,,0.00,WUHU216HW,2013-11-14 01:21:00,
2013-11-13 17:26:00,54.0,49.6,30.24,WSW,248,0.9,3.4,85,0.00,,,0.00,WUHU216HW,2013-11-14 01:26:00,
2013-11-13 17:31:00,54.0,49.6,30.24,SW,225,0.2,2.0,85,0.00,,,0.00,WUHU216HW,2013-11-14 01:31:00,
2013-11-13 17:36:00,54.0,49.6,30.24,SW,225,0.0,1.6,85,0.00,,,0.00,WUHU216HW,2013-11-14 01:36:00,
2013-11-13 17:41:00,54.0,49.6,30.25,SW,225,0.9,1.8,85,0.00,,,0.00,WUHU216HW,2013-11-14 01:41:00,
2013-11-13 18:09:00,54.0,49.6,30.25,SSW,203,0.0,0.0,85,0.00,,,0.00,WUHU216HW,2013-11-14 02:09:00,
2013-11-13 18:14:00,54.0,49.6,30.25,SW,225,0.0,1.8,85,0.00,,,0.00,WUHU216HW,2013-11-14 02:14:00,
2013-11-13 18:19:00,53.8,49.4,30.25,SW,225,0.0,1.8,85,0.00,,,0.00,WUHU216HW,2013-11-14 02:19:00,
2013-11-13 18:24:00,53.8,49.4,30.24,SSW,203,0.4,2.2,85,0.00,,,0.00,WUHU216HW,2013-11-14 02:24:00,
2013-11-13 18:29:00,53.8,49.4,30.24,SSW,203,0.2,2.2,85,0.00,,,0.00,WUHU216HW,2013-11-14 02:29:00,
2013-11-13 18:34:00,53.8,49.4,30.24,SW,225,0.0,0.7,85,0.00,,,0.00,WUHU216HW,2013-11-14 02:34:00,
2013-11-13 18:39:00,53.8,49.4,30.24,SW,225,0.4,0.7,85,0.00,,,0.00,WUHU216HW,2013-11-14 02:39:00,
2013-11-13 18:44:00,53.6,49.2,30.24,SW,225,0.4,0.4,85,0.00,,,0.00,WUHU216HW,2013-11-14 02:44:00,
2013-11-13 18:49:00,53.6,49.2,30.24,South,180,1.1,1.1,85,0.00,,,0.00,WUHU216HW,2013-11-14 02:49:00,
2013-11-13 18:54:00,53.6,49.2,30.23,SSW,203,1.8,1.8,85,0.00,,,0.00,WUHU216HW,2013-11-14 02:54:00,
2013-11-13 18:59:00,53.6,49.2,30.23,South,180,0.4,2.5,85,0.00,,,0.00,WUHU216HW,2013-11-14 02:59:00,
2013-11-13 19:04:00,53.6,49.2,30.23,SSW,203,1.6,3.4,85,0.00,,,0.00,WUHU216HW,2013-11-14 03:04:00,
2013-11-13 19:09:00,53.6,49.2,30.23,South,180,0.7,3.4,85,0.00,,,0.00,WUHU216HW,2013-11-14 03:09:00,
2013-11-13 19:14:00,53.8,49.4,30.23,SW,225,1.1,1.3,85,0.00,,,0.00,WUHU216HW,2013-11-14 03:14:00,
2013-11-13 19:19:00,53.6,49.2,30.23,South,180,1.3,1.8,85,0.00,,,0.00,WUHU216HW,2013-11-14 03:19:00,
2013-11-13 19:24:00,53.6,49.2,30.22,SSE,158,0.9,1.8,85,0.00,,,0.00,WUHU216HW,2013-11-14 03:24:00,
2013-11-13 19:29:00,53.6,49.2,30.22,WSW,248,0.4,1.3,85,0.00,,,0.00,WUHU216HW,2013-11-14 03:29:00,
2013-11-13 19:34:00,53.6,49.2,30.22,SSW,203,0.9,1.3,85,0.00,,,0.00,WUHU216HW,2013-11-14 03:34:00,
2013-11-13 19:39:00,53.6,49.2,30.22,West,270,0.2,1.3,85,0.00,,,0.00,WUHU216HW,2013-11-14 03:39:00,
2013-11-13 19:44:00,53.6,49.2,30.22,SW,225,0.0,1.3,85,0.00,,,0.00,WUHU216HW,2013-11-14 03:44:00,
2013-11-13 19:49:00,53.6,49.2,30.22,WSW,248,0.4,1.8,85,0.00,,,0.00,WUHU216HW,2013-11-14 03:49:00,
2013-11-13 19:54:00,53.6,49.2,30.22,SSW,203,0.4,3.4,85,0.00,,,0.00,WUHU216HW,2013-11-14 03:54:00,
2013-11-13 19:59:00,53.6,49.2,30.22,SW,225,0.7,3.4,85,0.00,,,0.00,WUHU216HW,2013-11-14 03:59:00,
2013-11-13 20:04:00,53.6,49.2,30.22,South,180,0.7,1.8,85,0.00,,,0.00,WUHU216HW,2013-11-14 04:04:00,
2013-11-13 20:09:00,53.6,49.2,30.22,WSW,248,0.4,2.9,85,0.00,,,0.00,WUHU216HW,2013-11-14 04:09:00,
2013-11-13 20:14:00,53.6,49.2,30.22,WSW,248,0.9,2.9,85,0.00,,,0.00,WUHU216HW,2013-11-14 04:14:00,
2013-11-13 20:19:00,53.5,49.1,30.22,WSW,248,0.4,1.8,85,0.00,,,0.00,WUHU216HW,2013-11-14 04:19:00,
2013-11-13 20:24:00,53.5,49.1,30.22,SSW,203,0.4,1.6,85,0.00,,,0.00,WUHU216HW,2013-11-14 04:24:00,
2013-11-13 20:29:00,53.5,49.1,30.22,SSW,203,0.4,1.1,85,0.00,,,0.00,WUHU216HW,2013-11-14 04:29:00,
2013-11-13 20:34:00,53.5,49.1,30.22,WSW,248,0.4,1.1,85,0.00,,,0.00,WUHU216HW,2013-11-14 04:34:00,
2013-11-13 20:39:00,53.5,49.1,30.22,WSW,248,0.4,2.0,85,0.00,,,0.00,WUHU216HW,2013-11-14 04:39:00,
2013-11-13 20:44:00,53.3,48.9,30.22,SW,225,0.4,2.0,85,0.00,,,0.00,WUHU216HW,2013-11-14 04:44:00,
2013-11-13 20:49:00,53.3,48.9,30.22,SW,225,0.2,0.7,85,0.00,,,0.00,WUHU216HW,2013-11-14 04:49:00,
2013-11-13 20:54:00,53.3,48.9,30.22,SSW,203,0.4,0.9,85,0.00,,,0.00,WUHU216HW,2013-11-14 04:54:00,
2013-11-13 20:59:00,53.3,48.9,30.22,SSW,203,0.0,0.9,85,0.00,,,0.00,WUHU216HW,2013-11-14 04:59:00,
2013-11-13 21:01:00,53.3,48.9,30.22,SSW,203,0.0,0.9,85,0.00,,,0.00,WUHU216HW,2013-11-14 05:01:00,
2013-11-13 21:02:00,53.3,48.9,30.22,SSW,203,0.2,0.9,85,0.00,,,0.00,WUHU216HW,2013-11-14 05:02:00,
2013-11-13 21:07:00,53.1,49.0,30.22,WSW,248,0.0,1.6,86,0.00,,,0.00,WUHU216HW,2013-11-14 05:07:00,
2013-11-13 21:12:00,53.1,48.7,30.22,WSW,248,0.0,1.6,85,0.00,,,0.00,WUHU216HW,2013-11-14 05:12:00,
2013-11-13 21:17:00,53.1,49.0,30.21,WSW,248,0.0,1.1,86,0.00,,,0.00,WUHU216HW,2013-11-14 05:17:00,
2013-11-13 21:22:00,52.9,48.8,30.21,WSW,248,0.2,1.1,86,0.00,,,0.00,WUHU216HW,2013-11-14 05:22:00,
2013-11-13 21:27:00,52.9,48.8,30.21,WSW,248,0.0,0.2,86,0.00,,,0.00,WUHU216HW,2013-11-14 05:27:00,
2013-11-13 21:32:00,52.9,48.8,30.21,WSW,248,0.0,0.2,86,0.00,,,0.00,WUHU216HW,2013-11-14 05:32:00,
2013-11-13 21:37:00,52.9,48.8,30.21,WSW,248,0.0,0.0,86,0.00,,,0.00,WUHU216HW,2013-11-14 05:37:00,
2013-11-13 21:42:00,52.9,48.8,30.21,WSW,248,0.0,0.0,86,0.00,,,0.00,WUHU216HW,2013-11-14 05:42:00,
2013-11-13 21:47:00,52.7,48.6,30.21,WSW,248,0.0,0.0,86,0.00,,,0.00,WUHU216HW,2013-11-14 05:47:00,
2013-11-13 21:52:00,52.7,48.6,30.20,WSW,248,0.0,0.0,86,0.00,,,0.00,WUHU216HW,2013-11-14 05:52:00,
2013-11-13 21:57:00,52.7,48.6,30.20,SW,225,0.9,0.9,86,0.00,,,0.00,WUHU216HW,2013-11-14 05:57:00,
2013-11-13 22:02:00,52.7,48.6,30.20,SSW,203,0.0,0.9,86,0.00,,,0.00,WUHU216HW,2013-11-14 06:02:00,
2013-11-13 22:07:00,52.6,48.4,30.20,SSW,203,0.4,1.1,86,0.00,,,0.00,WUHU216HW,2013-11-14 06:07:00,
2013-11-13 22:12:00,52.6,48.4,30.20,WSW,248,0.0,1.1,86,0.00,,,0.00,WUHU216HW,2013-11-14 06:12:00,
2013-11-13 22:17:00,52.6,48.4,30.20,WSW,248,0.7,0.7,86,0.00,,,0.00,WUHU216HW,2013-11-14 06:17:00,
2013-11-13 22:22:00,52.4,48.2,30.19,WSW,248,0.0,0.7,86,0.00,,,0.00,WUHU216HW,2013-11-14 06:22:00,
2013-11-13 22:27:00,52.4,48.6,30.19,SW,225,0.0,1.6,87,0.00,,,0.00,WUHU216HW,2013-11-14 06:27:00,
2013-11-13 22:32:00,52.2,48.4,30.19,SW,225,0.0,1.6,87,0.00,,,0.00,WUHU216HW,2013-11-14 06:32:00,
2013-11-13 22:37:00,52.2,48.4,30.19,West,270,0.0,0.9,87,0.00,,,0.00,WUHU216HW,2013-11-14 06:37:00,
2013-11-13 22:42:00,52.2,48.4,30.19,West,270,0.0,0.9,87,0.00,,,0.00,WUHU216HW,2013-11-14 06:42:00,
2013-11-13 22:47:00,52.2,48.4,30.19,West,270,0.0,0.4,87,0.00,,,0.00,WUHU216HW,2013-11-14 06:47:00,
2013-11-13 22:52:00,52.2,48.4,30.19,West,270,0.2,0.4,87,0.00,,,0.00,WUHU216HW,2013-11-14 06:52:00,
2013-11-13 22:57:00,52.0,48.3,30.19,West,270,0.0,0.2,87,0.00,,,0.00,WUHU216HW,2013-11-14 06:57:00,
2013-11-13 23:02:00,52.0,48.3,30.18,West,270,0.0,0.7,87,0.00,,,0.00,WUHU216HW,2013-11-14 07:02:00,
2013-11-13 23:07:00,52.0,48.3,30.19,West,270,0.0,0.9,87,0.00,,,0.00,WUHU216HW,2013-11-14 07:07:00,
2013-11-13 23:12:00,51.8,48.1,30.18,West,270,0.0,0.9,87,0.00,,,0.00,WUHU216HW,2013-11-14 07:12:00,
2013-11-13 23:17:00,51.8,48.3,30.18,West,270,0.2,1.1,88,0.00,,,0.00,WUHU216HW,2013-11-14 07:17:00,
2013-11-13 23:22:00,51.7,48.2,30.18,West,270,0.2,1.1,88,0.00,,,0.00,WUHU216HW,2013-11-14 07:22:00,
2013-11-13 23:27:00,51.7,48.2,30.18,West,270,0.0,0.7,88,0.00,,,0.00,WUHU216HW,2013-11-14 07:27:00,
2013-11-13 23:32:00,51.5,48.0,30.18,West,270,0.0,0.4,88,0.00,,,0.00,WUHU216HW,2013-11-14 07:32:00,
2013-11-13 23:37:00,51.5,48.0,30.17,West,270,0.0,0.4,88,0.00,,,0.00,WUHU216HW,2013-11-14 07:37:00,
2013-11-13 23:42:00,51.5,48.0,30.17,West,270,0.0,0.0,88,0.00,,,0.00,WUHU216HW,2013-11-14 07:42:00,
2013-11-13 23:47:00,51.3,47.8,30.17,West,270,0.0,0.0,88,0.00,,,0.00,WUHU216HW,2013-11-14 07:47:00,
2013-11-13 23:52:00,51.1,47.6,30.17,West,270,0.0,0.0,88,0.00,,,0.00,WUHU216HW,2013-11-14 07:52:00,
2013-11-13 23:57:00,50.9,47.4,30.17,West,270,0.0,0.0,88,0.00,,,0.00,WUHU216HW,2013-11-14 07:57:00,